| time (UTC) | temp F | wind direction | speed knots | gust knots | rain 1hr in | rain 24hr in | rain mn in | humidity % | barometer mb |
| 20260507094548 | 35 | 221 | 0.9 | 2.6 | 0.00 | 0.00 | 0.00 | 67 | 1013.1 |
| 20260507093052 | 35 | 221 | 0.9 | 2.6 | 0.00 | 0.00 | 0.00 | 66 | 1013.1 |
| 20260507091607 | 36 | 221 | 1.7 | 3.5 | 0.00 | 0.00 | 0.00 | 66 | 1013.0 |
| 20260507090047 | 36 | 236 | 1.7 | 3.5 | 0.00 | 0.00 | 0.00 | 67 | 1013.1 |
| 20260507084543 | 36 | 236 | 0.9 | 3.5 | 0.00 | 0.00 | 0.00 | 67 | 1013.1 |
| 20260507083041 | 36 | 236 | 1.7 | 3.5 | 0.00 | 0.00 | 0.00 | 67 | 1013.2 |
| 20260507081539 | 35 | 236 | 0.9 | 3.5 | 0.00 | 0.00 | 0.00 | 67 | 1013.1 |
| 20260507080038 | 36 | 236 | 0.9 | 2.6 | 0.00 | 0.00 | 0.00 | 66 | 1013.0 |
| 20260507074543 | 36 | 236 | 0.9 | 1.7 | 0.00 | 0.00 | 0.00 | 64 | 1012.9 |
| 20260507073032 | 37 | 236 | 0.9 | 2.6 | 0.00 | 0.00 | 0.00 | 62 | 1013.0 |
| 20260507071528 | 38 | 236 | 0.9 | 1.7 | 0.00 | 0.00 | 0.00 | 61 | 1013.4 |
| 20260507070026 | 39 | 236 | 0.0 | 1.7 | 0.00 | 0.00 | 0.00 | 59 | 1013.4 |
| 20260507064524 | 39 | 236 | 0.0 | 2.6 | 0.00 | 0.00 | 0.00 | 59 | 1013.4 |
| 20260507063025 | 39 | 236 | 0.9 | 2.6 | 0.00 | 0.00 | 0.00 | 59 | 1013.6 |
| 20260507061520 | 39 | 236 | 1.7 | 3.5 | 0.00 | 0.00 | 0.00 | 59 | 1013.7 |
| 20260507060018 | 40 | 240 | 1.7 | 3.5 | 0.00 | 0.00 | 0.00 | 58 | 1013.9 |
| 20260507054517 | 40 | 271 | 0.9 | 2.6 | 0.00 | 0.00 | 0.00 | 57 | 1013.9 |
| 20260507053016 | 40 | 275 | 1.7 | 3.5 | 0.00 | 0.00 | 0.00 | 56 | 1014.1 |
| 20260507051513 | 40 | 281 | 0.0 | 3.5 | 0.00 | 0.00 | 0.00 | 56 | 1014.1 |
| 20260507050011 | 40 | 269 | 0.9 | 5.2 | 0.00 | 0.00 | 0.00 | 56 | 1014.3 |
| 20260507044511 | 40 | 282 | 1.7 | 5.2 | 0.00 | 0.00 | 0.00 | 55 | 1014.3 |
| 20260507043011 | 40 | 268 | 0.9 | 3.5 | 0.00 | 0.00 | 0.00 | 55 | 1014.4 |
| 20260507041512 | 40 | 258 | 0.9 | 5.2 | 0.00 | 0.00 | 0.00 | 54 | 1014.4 |
| 20260507040009 | 41 | 261 | 0.9 | 5.2 | 0.00 | 0.00 | 0.00 | 54 | 1014.6 |
| 20260507034510 | 41 | 269 | 1.7 | 5.2 | 0.00 | 0.00 | 0.00 | 54 | 1014.7 |
| 20260507033009 | 41 | 270 | 0.9 | 7.0 | 0.00 | 0.00 | 0.00 | 53 | 1014.7 |
| 20260507031511 | 41 | 301 | 0.9 | 2.6 | 0.00 | 0.00 | 0.00 | 53 | 1014.7 |
| 20260507030008 | 41 | 269 | 1.7 | 5.2 | 0.00 | 0.00 | 0.00 | 52 | 1014.8 |
| 20260507024507 | 41 | 271 | 2.6 | 5.2 | 0.00 | 0.00 | 0.00 | 52 | 1014.8 |
| 20260507023007 | 42 | 269 | 0.9 | 6.1 | 0.00 | 0.00 | 0.00 | 51 | 1014.8 |
| 20260507021506 | 42 | 263 | 2.6 | 5.2 | 0.00 | 0.00 | 0.00 | 50 | 1014.8 |
| 20260507020006 | 42 | 257 | 0.9 | 3.5 | 0.00 | 0.00 | 0.00 | 50 | 1014.7 |
| 20260507014509 | 42 | 284 | 1.7 | 4.3 | 0.00 | 0.00 | 0.00 | 49 | 1014.6 |
| 20260507013005 | 42 | 297 | 1.7 | 6.1 | 0.00 | 0.00 | 0.00 | 49 | 1014.5 |
| 20260507011505 | 42 | 290 | 1.7 | 6.1 | 0.00 | 0.00 | 0.00 | 49 | 1014.6 |
| 20260507010010 | 42 | 246 | 0.9 | 7.0 | 0.00 | 0.00 | 0.00 | 49 | 1014.7 |
| 20260507004504 | 42 | 303 | 2.6 | 7.0 | 0.00 | 0.00 | 0.00 | 48 | 1014.7 |
| 20260507003008 | 43 | 261 | 3.5 | 8.7 | 0.00 | 0.00 | 0.00 | 48 | 1014.8 |
| 20260507001503 | 43 | 329 | 2.6 | 10.4 | 0.00 | 0.00 | 0.00 | 48 | 1014.9 |
| 20260507000003 | 43 | 257 | 5.2 | 9.6 | 0.00 | 0.00 | 0.00 | 48 | 1014.9 |
| 20260506234502 | 43 | 294 | 4.3 | 11.3 | 0.00 | 0.00 | 0.00 | 47 | 1015.0 |
| 20260506233003 | 43 | 273 | 5.2 | 12.2 | 0.00 | 0.00 | 0.00 | 47 | 1015.0 |
| 20260506231505 | 43 | 280 | 4.3 | 10.4 | 0.00 | 0.00 | 0.00 | 47 | 1015.0 |
| 20260506230001 | 43 | 248 | 3.5 | 8.7 | 0.00 | 0.00 | 0.00 | 49 | 1015.2 |
| 20260506224501 | 43 | 278 | 3.5 | 9.6 | 0.00 | 0.00 | 0.00 | 48 | 1015.2 |
| 20260506223000 | 43 | 255 | 4.3 | 11.3 | 0.00 | 0.00 | 0.00 | 47 | 1015.2 |
| 20260506221608 | 43 | 211 | 5.2 | 10.4 | 0.00 | 0.00 | 0.00 | 49 | 1015.3 |
| 20260506220058 | 43 | 327 | 5.2 | 10.4 | 0.00 | 0.00 | 0.00 | 49 | 1015.4 |
| 20260506214604 | 42 | 306 | 5.2 | 11.3 | 0.00 | 0.00 | 0.00 | 49 | 1015.5 |
| 20260506213057 | 42 | 289 | 5.2 | 11.3 | 0.00 | 0.00 | 0.00 | 49 | 1015.6 |
| 20260506211556 | 42 | 307 | 5.2 | 13.0 | 0.00 | 0.00 | 0.00 | 50 | 1015.7 |
| 20260506210055 | 42 | 290 | 6.1 | 11.3 | 0.00 | 0.00 | 0.00 | 51 | 1015.7 |
| 20260506204559 | 42 | 253 | 7.8 | 13.0 | 0.00 | 0.00 | 0.00 | 50 | 1015.7 |
| 20260506203054 | 42 | 330 | 5.2 | 11.3 | 0.00 | 0.00 | 0.00 | 50 | 1015.8 |
| 20260506201554 | 42 | 237 | 7.0 | 12.2 | 0.00 | 0.00 | 0.00 | 50 | 1015.8 |
| 20260506200052 | 42 | 261 | 4.3 | 8.7 | 0.00 | 0.00 | 0.00 | 51 | 1015.8 |
| 20260506194551 | 41 | 284 | 3.5 | 14.8 | 0.00 | 0.00 | 0.00 | 51 | 1015.9 |
| 20260506193050 | 41 | 261 | 3.5 | 9.6 | 0.00 | 0.00 | 0.00 | 53 | 1015.9 |
| 20260506191549 | 41 | 290 | 4.3 | 10.4 | 0.00 | 0.00 | 0.00 | 52 | 1016.1 |
| 20260506190048 | 41 | 161 | 5.2 | 8.7 | 0.00 | 0.00 | 0.00 | 52 | 1016.0 |
| 20260506184547 | 41 | 264 | 5.2 | 9.6 | 0.00 | 0.00 | 0.00 | 51 | 1016.0 |
| 20260506183047 | 40 | 267 | 6.1 | 13.0 | 0.00 | 0.00 | 0.00 | 51 | 1016.1 |
| 20260506181546 | 40 | 277 | 8.7 | 12.2 | 0.00 | 0.00 | 0.00 | 53 | 1016.2 |
| 20260506180044 | 40 | 291 | 3.5 | 12.2 | 0.00 | 0.00 | 0.00 | 54 | 1016.3 |
| 20260506174554 | 40 | 306 | 4.3 | 10.4 | 0.00 | 0.00 | 0.00 | 54 | 1016.4 |
| 20260506173043 | 39 | 250 | 4.3 | 14.8 | 0.00 | 0.00 | 0.00 | 54 | 1016.4 |
| 20260506171541 | 40 | 259 | 5.2 | 13.9 | 0.00 | 0.00 | 0.00 | 53 | 1016.4 |
| 20260506170045 | 39 | 292 | 6.1 | 11.3 | 0.00 | 0.00 | 0.00 | 55 | 1016.6 |
| 20260506164539 | 39 | 298 | 9.6 | 14.8 | 0.00 | 0.00 | 0.00 | 55 | 1016.6 |
| 20260506163042 | 38 | 242 | 7.0 | 10.4 | 0.00 | 0.00 | 0.00 | 54 | 1016.6 |
| 20260506161538 | 38 | 327 | 7.0 | 12.2 | 0.00 | 0.00 | 0.00 | 54 | 1016.6 |
| 20260506160030 | 38 | 323 | 8.7 | 13.0 | 0.00 | 0.00 | 0.00 | 56 | 1016.6 |
| 20260506154527 | 38 | 309 | 7.0 | 14.8 | 0.00 | 0.00 | 0.00 | 57 | 1016.5 |
| 20260506153034 | 37 | 286 | 6.1 | 13.0 | 0.00 | 0.00 | 0.00 | 57 | 1016.5 |
| 20260506151520 | 37 | 317 | 8.7 | 14.8 | 0.00 | 0.00 | 0.00 | 58 | 1016.4 |
| 20260506150018 | 37 | 288 | 8.7 | 14.8 | 0.00 | 0.00 | 0.00 | 57 | 1016.4 |
| 20260506144529 | 37 | 284 | 6.1 | 12.2 | 0.00 | 0.00 | 0.00 | 58 | 1016.3 |
| 20260506143014 | 37 | 262 | 6.1 | 11.3 | 0.00 | 0.00 | 0.00 | 59 | 1016.3 |
| 20260506141511 | 37 | 296 | 6.1 | 10.4 | 0.00 | 0.00 | 0.00 | 60 | 1016.3 |
| 20260506140008 | 37 | 281 | 3.5 | 13.0 | 0.00 | 0.00 | 0.00 | 60 | 1016.1 |
| 20260506134506 | 37 | 300 | 6.1 | 11.3 | 0.00 | 0.00 | 0.00 | 60 | 1015.8 |
| 20260506133003 | 36 | 288 | 7.8 | 11.3 | 0.00 | 0.00 | 0.00 | 61 | 1015.7 |
| 20260506131600 | 36 | 311 | 4.3 | 12.2 | 0.00 | 0.00 | 0.00 | 61 | 1015.6 |
| 20260506130138 | 36 | 295 | 3.5 | 9.6 | 0.00 | 0.00 | 0.00 | 62 | 1015.5 |
| 20260506124555 | 36 | 285 | 4.3 | 9.6 | 0.00 | 0.00 | 0.00 | 63 | 1015.5 |
| 20260506123051 | 36 | 247 | 4.3 | 9.6 | 0.00 | 0.00 | 0.00 | 62 | 1015.4 |
| 20260506121553 | 36 | 305 | 5.2 | 10.4 | 0.00 | 0.00 | 0.00 | 62 | 1015.1 |
| 20260506120045 | 36 | 297 | 4.3 | 9.6 | 0.00 | 0.00 | 0.00 | 62 | 1015.0 |
| 20260506114543 | 36 | 257 | 2.6 | 7.0 | 0.00 | 0.00 | 0.00 | 62 | 1014.9 |
| 20260506113049 | 36 | 297 | 2.6 | 7.0 | 0.00 | 0.00 | 0.00 | 62 | 1014.8 |
| 20260506111538 | 36 | 311 | 2.6 | 6.1 | 0.00 | 0.00 | 0.00 | 62 | 1014.8 |
| 20260506110041 | 36 | 269 | 2.6 | 6.1 | 0.00 | 0.00 | 0.00 | 62 | 1014.6 |
| 20260506104533 | 36 | 281 | 1.7 | 5.2 | 0.00 | 0.00 | 0.00 | 61 | 1014.3 |
| 20260506103033 | 36 | 274 | 2.6 | 6.1 | 0.00 | 0.00 | 0.00 | 61 | 1014.2 |
| 20260506101535 | 36 | 293 | 2.6 | 7.8 | 0.00 | 0.00 | 0.00 | 60 | 1014.2 |
| 20260506100036 | 36 | 263 | 1.7 | 5.2 | 0.00 | 0.00 | 0.00 | 60 | 1014.2 |